COSMOS 475

Satellite information

Favourite Embed

Satellite Type and Status

PAYLOADIN ORBIT

Key statistics

Satellite COSMOS 475 at a glance.

Uptime

19651

Days in orbit

Revolutions

≈ 13.8

Per day

Orbit

LEO

Low Earth Orbit

Inclination

74.1

Latest

Satellite identification and parameters

Extended collection of information and parameters for COSMOS 475.

Object identification

Identified? True

Debris? False

Object name: COSMOS 475

International designator: 1972-009A

Object number (NORAD): 5846

Object ID (CCSDS): 5846

Country: COMMONWEALTH OF INDEPENDENT STATES (CIS)

Current information (Y/N): Y

RCS size: LARGE

Orbital parameters

Period: 104.621 minutes

Inclination: 74.05 deg

SMA: 7354.813 km

Apoapsis: 993.089 km

Periapsis: 960.266 km

RAAN: 78.6978 deg

Eccentricy: 0.00223138

Argument of periapsis: 25.5222 deg

Mean anomaly: 78.025 deg

Mean motion: 13.76402099 rev/day

Mean motion (dot): 0.00000038 rev/day2

B* drag term: 0.000061990808 1/REarth

Two-line elements (TLE)

Creation date: Dec. 14, 2025, 3:07 a.m.

Reference frame: TEME

Reference center: EARTH

Epoch: Dec. 13, 2025, 3:35 p.m. UTC

TLE line 0: 0 COSMOS 475

TLE line 1: 1 05846U 72009A 25347.64990502 .00000038 00000-0 61991-4 0 9998

TLE line 2: 2 05846 74.0500 78.6978 0022314 25.5222 78.0250 13.76402099701568

Live tracking on map

Real-time ground track for satellite COSMOS 475.

In-orbit conjunctions

A list of the most updated potential collisions computed for object COSMOS 475.

Target Orbit TCA Probability of collision Miss distance Type
DELTA 1 DEB SSO 2025-10-05 16:55:19 0.0007006466 340.0 (m) DEBRIS
NOAA 16 DEB SSO 2025-07-13 16:36:56 0.0001027127 50.0 (m) DEBRIS
FENGYUN 1C DEB SSO 2025-06-23 01:09:44 0.0002482625 558.0 (m) DEBRIS
COSMOS 1275 DEB LEO 2024-08-08 14:04:04 0.0002002207 69.0 (m) DEBRIS

Associated space launch

The first soviet navigation system called Tsiklon consisted of Zaliv satellites in low earth orbit.

COSMOS 475 was lifted into orbit during the mission ‘Kosmos-3M | Zaliv 10’, on board a Kosmos-3M space rocket.

The launch took place on Feb. 25, 1972, 7:52 a.m. from 132/2.

For more information about the launch, click the button.

Launch to space Kosmos-3M | Zaliv 10
Kosmos-3M | Zaliv 10

Agency: N/A

Status: Launch Successful

Launch date: Feb. 25, 1972, 7:52 a.m. UTC

Rocket: Kosmos-3M

Launch pad: 132/2

Location: Plesetsk Cosmodrome, Russian Federation

...

Latest news about this satellite

There are no fresh news available about this satellite. Check back as we update our databases every day.


Newsletter sign-up

Weekly statistics, charts and insights to help you stay on top of the space industry.